Regional Weather Roundup
Issued by NWS Little Rock, AR

Home | Current Version | Previous Version | Graphics & Text | Print | Product List | Glossary On
Versions: 1 2 3 4 5 6 7 8 9 10 11 12 13 14 15 16 17 18 19 20 21 22 23 24 25 26 27 28 29 30 31 32 33 34 35 36 37 38 39 40 41 42 43 44 45 46 47 48 49 50
000
ASUS44 KLZK 222005
RWRLZK

WEATHER ROUNDUP FOR ARKANSAS
NATIONAL WEATHER SERVICE LITTLE ROCK AR
200 PM CST WED FEB 22 2017

NOTE: "FAIR" INDICATES FEW OR NO CLOUDS BELOW 12,000 FEET WITH NO
SIGNIFICANT WEATHER AND/OR OBSTRUCTIONS TO VISIBILITY.

ARZ001-003-010-029-222100-
NORTHWEST ARKANSAS

CITY           SKY/WX    TMP DP  RH WIND       PRES   REMARKS
FAYETTEVILLE   SUNNY     76  49  38 S9        29.79F
FORT SMITH     SUNNY     75  57  53 NE7       29.77F
HARRISON       SUNNY     73  56  54 SE13      29.78F
BENTONVILLE    SUNNY     75  48  38 SW10      29.78F
ROGERS         SUNNY     75  51  43 SW13      29.78F
SILOAM SPGS    SUNNY     75  50  41 S8        29.77F
HIGHFILL       SUNNY     76  50  40 SW8       29.77F
$$

ARZ004-005-016-222100-
NORTH CENTRAL ARKANSAS

CITY           SKY/WX    TMP DP  RH WIND       PRES   REMARKS
BATESVILLE     CLOUDY    63  55  77 S3        29.84F
FLIPPIN        SUNNY     72  54  53 S6        29.77F
MTN HOME       SUNNY     69  55  60 SW5       29.78F
$$

ARZ040-041-222100-
WEST CENTRAL ARKANSAS

CITY           SKY/WX    TMP DP  RH WIND       PRES   REMARKS
MENA           SUNNY     77  57  50 S6        29.81F
$$

ARZ009-017-025-026-028-222100-
NORTHEAST ARKANSAS

CITY           SKY/WX    TMP DP  RH WIND       PRES   REMARKS
CORNING        CLOUDY    66  61  82 W8        29.83F
JONESBORO      PTSUNNY   67  57  70 S5        29.83S
NEWPORT        CLOUDY    69  59  70 S8        29.83F
WALNUT RIDGE   CLOUDY    66  57  72 CALM      29.82F
BLYTHEVILLE    MOSUNNY   73  58  59 S10       29.81F
$$

ARZ022-023-033-042-044-222100-
CENTRAL ARKANSAS

CITY           SKY/WX    TMP DP  RH WIND       PRES   REMARKS
LITTLE ROCK    CLOUDY    60  58  92 S5        29.85F
N LITTLE ROCK    N/A     59  57  92 S3        29.86F
JACKSONVILLE   CLOUDY    60  59  95 SW5       29.84F
SEARCY         CLOUDY    66  60  81 SW6       29.85F
HOT SPRINGS    SUNNY     68  57  68 S9        29.85F
RUSSELLVILLE   MOSUNNY   68  58  70 E7        29.81F
CLINTON        CLOUDY    64  57  77 S8        29.83F
$$

ARZ036-222100-
EAST ARKANSAS

CITY           SKY/WX    TMP DP  RH WIND       PRES   REMARKS
WEST MEMPHIS   MOSUNNY   74  56  53 CALM      29.79F
$$

ARZ050-053-066-070-073-222100-
SOUTHWEST ARKANSAS

CITY           SKY/WX    TMP DP  RH WIND       PRES   REMARKS
ARKADELPHIA    CLOUDY    62  57  83 SE3       29.86F
CAMDEN         CLOUDY    68  54  60 S3        29.85F
TEXARKANA      SUNNY     69  58  67 VRB3      29.83F
EL DORADO      CLOUDY    67  56  67 CALM      29.85F
DE QUEEN       SUNNY     74  58  57 MISG      29.78F
$$

ARZ056-057-069-222100-
SOUTHEAST ARKANSAS

CITY           SKY/WX    TMP DP  RH WIND       PRES   REMARKS
PINE BLUFF     CLOUDY    62  57  83 SW6       29.86F
STUTTGART      CLOUDY    70  54  56 CALM      29.85F
MONTICELLO     CLOUDY    65  56  72 CALM      29.85F

$$





USA.gov is the U.S. government's official web portal to all federal, state and local government web resources and services.